Wetbulb
65.36 63.43 59.91 54.26 46.49 44.07 40.11 42.68 46.46 48.42 48.86 51.68 54.45 55.13 55.05 56.24 53.48 48.84 62.15 66.21 67.55 68.41 69.45 71.10 71.73 72.51 71.88 71.51 70.84 69.09 70.07 69.00 69.29 69.42 69.39 70.47 69.32 68.67 68.24 68.10 68.48 67.79 67.44 67.42 66.87 67.13 67.36 67.22 66.89
63.64 62.80 56.27 50.12 42.26 38.23 39.90 45.35 48.23 49.93 52.32 54.49 56.13 55.76 54.92 53.56 59.60 60.40 62.38 66.88 67.94 68.63 69.12 70.25 70.72 72.01 71.52 71.04 70.33 69.81 68.76 69.27 68.71 68.99 69.10 69.53 69.01 68.22 67.67 67.23 67.32 67.24 67.13 66.95 66.93 66.86 66.89 66.58 66.61
62.02 60.50 52.06 46.83 39.87 38.40 40.45 45.71 49.13 51.05 51.99 52.30 52.83 56.20 55.19 56.11 59.84 60.99 64.60 66.98 67.59 67.42 68.62 69.31 70.51 71.60 71.28 70.59 69.98 69.34 68.89 68.92 68.71 68.57 69.40 68.89 69.18 68.30 67.58 67.17 67.00 66.92 66.98 66.87 66.54 66.30 65.96 66.37 66.38
58.15 56.03 51.96 45.08 39.48 41.82 45.71 48.90 51.07 50.60 50.91 53.37 54.25 53.09 56.50 60.63 61.40 63.03 66.46 67.09 66.61 67.04 68.23 69.00 70.68 71.27 70.98 70.30 69.83 69.34 68.95 68.89 68.68 68.67 69.18 68.79 69.21 68.27 67.41 67.15 66.78 66.46 66.32 66.24 66.18 65.94 65.68 65.88 65.83
55.81 51.38 45.48 42.96 42.82 43.11 46.39 51.46 51.64 50.46 49.67 50.57 52.95 51.97 54.00 61.33 63.25 63.63 65.76 66.95 66.17 66.59 67.76 69.02 69.97 70.62 70.61 70.34 69.93 69.44 69.09 68.86 68.38 68.37 67.96 69.43 69.23 68.19 67.29 66.64 66.57 66.17 66.10 65.96 65.83 65.72 65.48 65.19 64.89
51.04 49.31 43.04 40.55 44.82 49.31 47.60 51.36 51.52 49.77 50.17 50.62 51.76 53.69 55.09 61.47 61.83 61.68 65.07 65.66 66.75 66.62 67.67 68.55 67.44 68.54 69.49 69.75 69.55 69.06 68.93 68.57 68.20 67.72 67.68 69.21 69.18 68.36 67.08 66.36 65.92 65.96 65.93 65.73 65.61 65.51 65.01 64.40 64.02
49.03 45.91 42.30 42.82 44.50 47.34 48.49 50.33 49.75 49.63 50.07 49.19 52.41 52.49 54.24 58.23 61.90 62.43 62.23 65.51 65.97 66.88 66.90 67.05 67.83 67.52 66.75 67.67 67.76 68.10 68.37 67.96 67.55 67.09 67.20 66.81 67.38 67.81 67.38 66.81 66.05 65.55 65.52 65.33 65.14 64.90 64.52 63.89 63.24
50.27 47.09 42.86 41.95 42.69 44.33 48.97 50.32 50.24 49.65 50.17 53.97 54.28 52.38 53.01 59.14 62.30 62.18 61.30 64.06 64.57 65.54 66.08 65.68 66.39 66.92 67.25 66.92 64.89 65.58 66.34 66.40 66.36 65.73 64.44 63.69 64.29 64.95 65.02 64.72 66.08 65.60 65.20 64.99 64.77 64.48 64.20 63.41 62.31
52.23 43.59 39.78 41.43 44.19 46.74 48.78 48.52 50.57 51.96 51.89 52.70 56.45 55.27 57.68 61.74 62.06 60.85 59.17 59.39 62.68 64.26 64.77 64.94 65.37 65.85 65.74 65.94 64.28 63.55 64.03 64.21 64.11 63.25 61.89 61.13 61.78 62.30 62.66 62.86 65.21 66.25 65.45 64.82 64.53 64.33 63.99 63.51 62.27
48.41 42.42 43.24 45.86 47.93 48.30 51.24 47.56 49.16 48.27 48.49 50.77 55.32 59.68 61.17 61.43 59.55 59.07 58.03 57.97 58.94 60.97 62.83 64.49 64.62 65.12 65.73 66.64 64.39 63.68 63.66 62.93 62.48 61.70 60.98 61.13 60.65 60.88 62.28 61.00 62.73 64.33 64.21 65.16 64.74 64.08 63.45 60.74 56.91
49.24 44.56 47.98 48.70 50.74 52.56 51.80 50.77 51.49 46.36 46.01 49.19 52.14 57.65 59.25 58.23 58.73 58.60 58.57 58.37 58.73 59.13 61.72 64.07 64.69 65.16 65.68 65.83 64.53 63.97 62.98 61.95 61.48 60.88 60.40 60.24 59.51 58.47 59.29 59.22 59.64 59.17 58.98 59.50 61.25 60.90 59.41 57.59 56.98
45.21 49.68 49.31 50.70 51.09 50.15 50.04 52.24 50.41 47.93 47.09 51.66 52.00 59.95 59.30 58.60 58.76 58.95 58.77 59.19 58.41 57.95 58.54 63.53 64.05 65.10 65.46 65.59 64.94 64.14 63.46 62.35 61.24 60.68 60.49 59.71 57.80 57.14 57.77 57.83 57.85 57.37 57.67 56.62 56.64 55.97 56.11 56.55 57.37
44.19 46.67 49.48 50.51 50.68 48.91 50.47 50.04 49.90 50.20 53.06 52.44 56.69 59.67 58.88 59.15 59.54 59.66 59.80 59.76 59.90 58.05 58.22 59.01 62.68 64.52 65.07 64.17 64.43 63.98 63.20 62.74 62.44 61.75 61.27 60.83 58.31 57.41 57.60 56.96 56.51 56.60 56.53 56.02 55.98 55.83 56.57 56.68 56.69
45.39 46.26 47.05 49.50 49.63 48.90 47.69 47.80 48.63 49.46 52.08 52.54 56.08 57.49 58.14 58.55 59.32 58.78 58.96 59.61 59.99 59.95 58.47 58.05 60.52 62.22 63.80 63.02 63.05 62.98 63.11 62.39 61.93 62.47 62.28 61.18 60.06 58.88 57.99 57.28 56.32 55.89 56.56 56.17 55.92 55.94 55.68 55.88 55.94
47.30 43.32 44.48 45.16 47.01 47.17 48.06 44.23 46.55 50.47 51.50 51.45 51.60 51.07 55.82 58.27 58.71 58.58 59.92 59.93 60.65 61.34 60.61 58.00 58.11 60.64 61.83 62.45 62.19 62.56 62.80 62.26 61.41 61.87 62.31 61.51 60.94 59.43 58.97 57.98 56.95 56.92 56.60 56.45 55.37 55.23 54.94 54.34 54.50
42.53 41.22 36.82 43.29 46.69 47.21 46.29 40.00 45.69 49.82 48.37 49.08 49.69 48.87 50.05 51.59 58.27 59.44 59.96 60.71 61.35 61.52 60.11 59.43 60.07 59.19 60.50 61.88 61.76 62.09 61.48 61.28 61.33 61.16 61.38 61.69 61.24 60.33 59.09 58.82 58.16 57.49 56.19 55.50 54.34 53.72 53.86 53.99 53.71
37.82 32.53 36.19 39.55 45.53 44.78 44.40 38.68 45.48 48.82 48.34 46.59 46.31 47.63 47.67 49.09 50.82 56.81 59.59 60.55 61.49 61.81 59.77 58.72 58.95 59.22 58.62 59.36 61.09 60.60 60.43 59.02 60.21 60.26 60.28 60.39 61.12 60.67 59.79 59.16 58.66 57.82 56.81 55.57 54.94 54.27 53.94 53.68 54.05
34.14 34.64 36.18 35.84 41.12 42.78 41.59 41.35 44.69 45.77 46.71 46.48 46.63 46.72 46.53 47.51 49.86 52.03 56.49 60.32 61.33 61.55 59.35 58.18 58.46 59.28 58.43 58.81 58.72 58.81 57.85 57.43 57.43 59.34 59.69 59.95 60.92 60.74 59.66 58.19 57.50 57.25 56.49 56.16 55.09 54.19 54.15 54.06 53.99
39.35 35.80 35.67 37.40 42.98 39.56 38.47 40.34 42.92 45.78 44.83 45.22 45.91 44.86 45.70 47.18 49.99 51.05 52.90 57.99 59.86 60.46 58.82 56.97 57.00 58.51 57.99 57.44 56.81 57.52 58.03 57.97 57.01 57.80 59.07 59.51 60.35 60.29 59.64 58.89 57.33 56.82 56.52 56.66 55.49 54.41 54.33 53.94 53.49
37.70 36.36 34.84 38.10 41.41 39.59 38.46 38.45 41.89 41.78 44.15 44.13 45.73 45.07 46.11 46.65 48.05 49.94 50.40 53.03 57.54 59.90 60.46 58.28 57.33 58.00 58.20 58.31 58.43 58.27 58.28 58.53 58.70 57.99 57.63 58.47 59.30 59.69 59.70 59.22 58.40 57.75 56.96 55.00 55.12 54.81 53.28 53.64 53.91
39.11 36.39 35.47 35.65 38.95 39.50 36.97 37.45 39.28 41.42 42.72 44.77 44.76 45.78 46.09 46.87 47.84 48.64 49.54 49.89 54.28 57.78 59.82 60.57 58.39 58.27 58.57 59.20 58.70 57.30 56.78 55.62 56.30 57.36 57.61 57.61 58.02 58.46 59.09 59.36 59.20 58.56 57.70 56.79 55.64 55.13 54.71 53.98 53.20
35.45 41.84 39.12 37.65 35.75 30.44 37.60 29.72 35.40 37.49 40.54 42.49 43.56 43.61 44.42 45.42 46.89 48.36 50.44 50.27 50.98 55.83 59.21 61.09 60.97 59.01 58.87 59.31 58.54 57.79 57.29 56.09 57.37 57.94 58.43 58.37 58.06 57.89 58.35 59.05 58.88 58.62 58.22 57.99 57.44 56.45 55.64 55.16 53.25
36.71 41.62 40.33 37.52 34.73 32.32 33.81 29.73 32.73 37.64 37.20 39.68 42.05 43.35 44.19 45.71 47.02 48.48 49.08 50.46 51.51 54.86 57.63 59.81 61.28 60.30 59.20 59.03 59.09 58.18 57.49 58.11 58.43 57.94 57.38 57.64 58.11 57.80 57.79 58.05 58.53 58.31 58.34 58.11 58.09 57.00 55.90 56.48 55.41
41.81 38.01 37.24 36.14 36.23 29.65 33.49 31.11 32.05 34.90 37.82 39.34 41.45 42.62 44.37 45.66 46.30 47.29 47.40 48.67 49.32 50.67 56.07 58.51 59.83 60.63 60.12 58.55 58.71 58.29 57.80 57.72 57.19 56.62 56.74 57.42 57.95 57.64 57.81 57.84 58.02 58.06 58.10 58.05 58.20 58.18 57.44 56.92 56.77
39.21 34.98 20.49 27.93 27.70 25.68 32.03 30.42 33.88 37.57 39.86 41.06 41.77 42.65 43.21 44.36 43.99 44.34 45.90 46.75 48.43 47.84 50.19 56.43 58.37 59.39 60.61 59.71 58.33 58.50 58.13 58.11 57.73 57.35 56.82 56.89 57.11 57.54 57.64 57.64 57.48 57.82 58.11 58.40 58.56 58.10 57.91 57.47 57.04
37.63 36.27 27.52 15.86 19.40 24.01 29.94 28.52 33.61 39.79 43.19 44.23 44.36 45.08 43.73 43.28 44.10 44.49 45.93 47.10 47.25 48.79 48.55 51.83 56.00 58.12 59.62 60.19 59.20 58.80 59.03 58.74 58.69 58.72 58.37 57.75 57.76 58.04 58.68 58.51 58.18 57.82 58.32 58.52 58.74 58.51 58.62 58.51 57.63
35.68 34.25 36.70 26.27 23.56 20.54 26.45 31.02 37.56 40.25 40.28 40.52 40.71 41.10 42.76 42.33 42.71 42.02 42.82 45.88 46.00 46.83 47.71 49.01 52.12 56.14 57.88 59.34 60.38 59.81 59.51 59.29 59.28 59.46 59.60 59.00 58.76 58.89 58.61 58.55 58.48 58.45 58.11 58.18 58.49 58.47 58.45 58.71 58.43
37.89 39.37 31.95 30.58 20.63 18.99 24.69 26.35 28.86 34.13 36.80 39.18 38.95 39.84 39.73 39.92 39.98 42.08 43.57 43.86 43.49 42.77 43.40 44.31 46.36 49.20 54.68 57.35 58.92 60.44 60.77 60.41 60.35 60.56 59.86 59.69 59.74 59.37 59.08 58.66 58.97 58.67 58.56 58.63 58.27 58.24 58.92 58.76 59.24
35.17 33.10 32.96 32.12 28.46 21.68 18.90 24.46 34.36 36.96 37.40 38.16 38.59 39.75 39.38 40.33 41.02 40.96 41.02 41.55 42.03 42.94 43.46 43.06 43.65 44.09 45.80 49.70 54.52 58.10 59.69 60.80 61.20 60.80 60.71 60.46 60.25 59.66 59.42 59.37 59.42 59.26 58.70 58.80 58.81 58.73 58.92 58.78 58.93
38.77 35.64 35.27 28.45 24.26 25.67 25.44 25.60 37.82 38.80 39.06 39.40 39.54 39.40 41.39 41.06 40.41 40.20 40.32 41.09 41.78 42.50 43.25 42.64 43.07 43.03 44.20 44.69 47.10 51.04 57.48 58.98 59.59 60.40 61.14 61.21 60.39 60.47 60.13 59.90 59.64 59.84 59.57 59.34 58.99 58.72 58.99 58.95 58.65
MSLP
1014.34 1013.50 1013.38 1013.92 1015.82 1016.98 1017.52 1017.37 1016.82 1016.65 1016.42 1016.30 1016.30 1016.63 1017.63 1018.19 1018.61 1019.21 1018.74 1018.93 1019.11 1019.41 1019.70 1019.84 1020.06 1020.14 1020.31 1020.53 1020.75 1020.87 1020.95 1021.03 1020.99 1020.96 1020.92 1021.08 1021.28 1021.37 1021.41 1021.54 1021.66 1021.68 1021.80 1021.97 1022.20 1022.30 1022.39 1022.46 1022.46
1014.36 1013.67 1013.87 1015.09 1016.69 1017.94 1018.00 1017.30 1016.87 1016.52 1016.28 1016.44 1016.73 1017.27 1017.70 1018.52 1018.50 1018.90 1019.02 1019.04 1018.99 1019.42 1019.81 1020.03 1020.18 1020.33 1020.48 1020.54 1020.77 1020.96 1021.08 1021.22 1021.26 1021.30 1021.26 1021.32 1021.49 1021.64 1021.72 1021.86 1022.04 1022.02 1022.08 1022.34 1022.52 1022.63 1022.71 1022.76 1022.77
1014.13 1014.31 1015.34 1016.21 1017.47 1017.96 1017.60 1017.30 1016.78 1016.48 1016.34 1016.33 1016.96 1017.42 1018.04 1018.34 1018.44 1018.61 1018.43 1018.68 1018.94 1019.50 1019.89 1020.24 1020.40 1020.54 1020.69 1020.81 1020.89 1021.08 1021.22 1021.38 1021.47 1021.49 1021.52 1021.65 1021.75 1021.92 1022.06 1022.15 1022.30 1022.32 1022.45 1022.62 1022.85 1022.96 1023.00 1023.03 1023.11
1015.11 1015.12 1016.29 1016.88 1017.38 1017.09 1016.94 1016.91 1016.59 1016.42 1016.40 1016.44 1017.03 1018.08 1018.19 1018.14 1017.99 1018.10 1018.58 1018.80 1018.97 1019.45 1019.77 1020.28 1020.57 1020.74 1020.82 1020.96 1021.01 1021.13 1021.34 1021.59 1021.71 1021.73 1021.70 1021.81 1021.92 1022.20 1022.36 1022.51 1022.61 1022.69 1022.80 1022.97 1023.15 1023.29 1023.29 1023.35 1023.42
1016.09 1016.89 1017.46 1017.67 1017.30 1016.85 1016.51 1016.32 1016.32 1016.44 1016.47 1016.65 1017.03 1018.24 1018.51 1018.17 1017.95 1018.17 1018.65 1018.89 1019.28 1019.56 1019.82 1020.01 1020.43 1020.85 1021.05 1021.15 1021.23 1021.31 1021.48 1021.74 1021.88 1021.93 1021.82 1021.93 1022.12 1022.36 1022.64 1022.80 1022.91 1022.94 1023.10 1023.27 1023.44 1023.52 1023.60 1023.64 1023.65
1017.46 1018.11 1018.45 1018.40 1017.55 1016.73 1016.46 1016.06 1016.12 1016.29 1016.51 1016.66 1017.40 1018.31 1018.75 1018.47 1018.39 1018.68 1018.71 1018.92 1019.30 1019.78 1019.87 1020.18 1020.23 1020.64 1021.10 1021.23 1021.43 1021.52 1021.66 1021.88 1022.11 1022.17 1022.17 1022.14 1022.28 1022.44 1022.84 1023.04 1023.13 1023.20 1023.35 1023.51 1023.62 1023.76 1023.84 1023.84 1023.88
1018.41 1019.06 1019.15 1018.60 1017.81 1016.85 1016.29 1016.02 1015.98 1016.10 1016.31 1016.53 1017.06 1018.53 1019.04 1018.86 1018.69 1018.77 1018.92 1018.92 1019.26 1019.72 1020.11 1020.15 1020.60 1020.52 1020.90 1021.26 1021.50 1021.76 1021.84 1022.03 1022.28 1022.38 1022.46 1022.39 1022.53 1022.65 1022.85 1023.26 1023.35 1023.46 1023.52 1023.71 1023.84 1023.92 1023.95 1023.98 1024.00
1018.62 1019.40 1019.39 1018.79 1018.10 1017.28 1016.39 1016.24 1016.16 1016.12 1016.21 1016.17 1016.65 1018.07 1018.78 1018.56 1018.64 1018.99 1019.36 1019.44 1019.62 1019.77 1020.04 1020.41 1020.33 1020.83 1020.84 1021.16 1021.45 1021.80 1022.01 1022.10 1022.34 1022.55 1022.77 1022.86 1022.93 1023.01 1023.05 1023.20 1023.39 1023.52 1023.63 1023.79 1023.96 1024.02 1024.04 1024.05 1024.04
1018.59 1019.71 1019.63 1018.86 1018.08 1017.41 1016.65 1016.52 1016.25 1016.20 1016.30 1016.58 1017.21 1017.67 1017.63 1017.97 1018.71 1019.25 1019.69 1020.13 1020.06 1020.09 1020.05 1020.25 1020.61 1020.51 1021.03 1021.12 1021.48 1021.68 1021.97 1022.23 1022.40 1022.65 1022.91 1023.06 1023.20 1023.27 1023.36 1023.39 1023.45 1023.59 1023.74 1023.90 1024.00 1024.08 1024.14 1024.23 1024.18
1019.20 1019.83 1019.35 1018.56 1018.03 1017.58 1017.18 1016.88 1016.77 1016.62 1016.80 1017.17 1017.73 1018.03 1017.99 1018.36 1019.01 1019.27 1019.62 1020.06 1020.16 1020.15 1020.17 1020.07 1020.27 1020.74 1020.74 1021.05 1021.39 1021.85 1022.10 1022.25 1022.47 1022.68 1022.87 1023.11 1023.31 1023.40 1023.45 1023.55 1023.57 1023.70 1023.85 1024.03 1024.08 1024.15 1024.19 1024.29 1024.39
1019.26 1019.41 1019.01 1018.54 1017.98 1017.75 1017.48 1017.33 1017.04 1016.96 1017.01 1017.16 1017.59 1018.24 1018.70 1018.85 1019.15 1019.44 1019.60 1019.55 1019.63 1019.88 1019.94 1020.02 1020.00 1020.18 1020.71 1020.87 1021.34 1021.63 1021.97 1022.28 1022.43 1022.55 1022.85 1023.07 1023.26 1023.46 1023.63 1023.78 1023.84 1023.89 1023.96 1024.10 1024.09 1024.13 1024.25 1024.33 1024.33
1019.42 1018.96 1018.79 1018.42 1018.11 1018.13 1017.76 1017.45 1017.40 1017.23 1017.02 1017.06 1017.07 1017.60 1018.46 1018.98 1019.11 1019.20 1019.47 1019.60 1019.56 1019.55 1019.72 1019.72 1019.72 1019.85 1020.08 1020.50 1020.97 1021.32 1021.78 1022.01 1022.26 1022.50 1022.61 1022.96 1023.30 1023.53 1023.66 1023.79 1023.87 1024.01 1024.04 1024.17 1024.20 1024.29 1024.25 1024.23 1024.12
1019.50 1019.12 1018.66 1018.50 1018.03 1017.99 1017.90 1017.74 1017.62 1017.24 1016.82 1016.87 1017.19 1017.83 1018.22 1018.52 1018.73 1018.86 1018.91 1019.11 1019.40 1019.55 1019.39 1019.59 1019.61 1019.60 1019.67 1020.01 1020.34 1020.68 1021.29 1021.75 1021.80 1022.05 1022.37 1022.65 1022.91 1023.15 1023.32 1023.50 1023.69 1023.76 1023.90 1024.07 1024.12 1024.13 1024.14 1024.09 1023.96
1019.20 1019.25 1018.97 1018.65 1018.40 1017.98 1017.98 1017.89 1017.82 1016.98 1016.82 1017.01 1017.45 1017.95 1018.22 1018.31 1018.18 1018.66 1018.76 1018.52 1018.72 1019.08 1019.20 1019.27 1019.50 1019.53 1019.44 1019.49 1019.63 1020.03 1020.35 1020.84 1021.38 1021.55 1021.69 1022.09 1022.40 1022.71 1022.96 1023.12 1023.36 1023.47 1023.56 1023.71 1023.83 1023.86 1023.91 1023.88 1023.79
1019.19 1019.44 1019.24 1018.98 1018.64 1018.18 1017.96 1017.98 1017.60 1016.90 1017.03 1017.20 1017.56 1017.72 1017.98 1018.07 1018.28 1018.04 1017.55 1017.84 1017.68 1017.83 1018.52 1018.72 1018.91 1019.31 1019.41 1019.25 1019.36 1019.68 1020.04 1020.27 1020.60 1020.91 1021.13 1021.47 1021.80 1022.12 1022.44 1022.64 1022.88 1022.95 1023.08 1023.25 1023.53 1023.67 1023.72 1023.77 1023.61
1019.67 1019.96 1020.11 1019.27 1018.62 1018.29 1018.46 1017.71 1017.72 1017.32 1017.37 1017.24 1017.41 1017.56 1017.57 1017.58 1017.55 1017.29 1017.24 1017.17 1017.32 1017.35 1017.44 1017.92 1018.25 1018.66 1019.00 1019.10 1019.22 1019.34 1019.65 1020.03 1020.25 1020.36 1020.58 1020.83 1021.14 1021.41 1021.78 1022.02 1022.20 1022.37 1022.70 1022.88 1023.19 1023.39 1023.56 1023.58 1023.47
1020.56 1020.40 1020.45 1019.63 1018.62 1018.66 1018.59 1017.94 1017.33 1016.95 1017.05 1017.34 1017.27 1017.32 1017.17 1016.91 1016.90 1016.69 1016.53 1016.54 1016.47 1016.54 1016.80 1016.92 1017.30 1017.68 1018.17 1018.73 1018.89 1019.07 1019.31 1019.65 1019.74 1020.03 1020.13 1020.18 1020.53 1020.88 1021.18 1021.42 1021.57 1021.84 1022.21 1022.50 1022.56 1022.91 1023.04 1023.17 1023.12
1020.68 1020.84 1020.20 1019.55 1018.83 1018.63 1018.56 1017.80 1017.63 1017.31 1017.31 1017.08 1016.84 1016.83 1016.88 1016.69 1016.24 1015.93 1015.82 1015.80 1015.76 1015.90 1016.28 1016.64 1016.76 1016.89 1017.23 1017.80 1018.54 1018.83 1019.04 1019.25 1019.36 1019.40 1019.52 1019.67 1019.91 1020.16 1020.53 1020.80 1021.04 1021.41 1021.77 1021.98 1022.17 1022.41 1022.58 1022.69 1022.72
1020.09 1020.24 1019.96 1019.47 1018.93 1019.06 1018.83 1017.81 1017.54 1016.95 1016.73 1016.72 1016.63 1016.57 1016.38 1016.21 1015.48 1015.27 1015.02 1014.95 1015.16 1015.45 1015.68 1015.69 1016.15 1016.11 1016.68 1017.12 1017.71 1018.38 1018.36 1018.69 1018.67 1018.68 1018.76 1019.06 1019.20 1019.43 1019.85 1020.21 1020.59 1020.81 1021.07 1021.18 1021.47 1021.86 1022.12 1022.37 1022.57
1019.98 1019.93 1019.81 1019.85 1019.11 1019.39 1018.83 1017.45 1017.00 1016.76 1016.08 1015.88 1016.00 1016.04 1015.80 1015.59 1015.23 1014.62 1014.46 1014.46 1014.58 1014.30 1014.44 1014.77 1015.02 1015.45 1016.00 1016.15 1016.14 1016.73 1017.64 1017.88 1017.89 1018.16 1018.28 1018.31 1018.44 1018.56 1018.79 1019.30 1019.76 1019.98 1020.34 1020.55 1020.79 1021.12 1021.60 1021.67 1021.99
1019.35 1019.18 1019.74 1019.86 1019.52 1019.27 1019.03 1017.44 1016.59 1015.82 1015.59 1015.35 1015.28 1015.31 1015.32 1015.17 1014.94 1014.32 1013.93 1013.64 1013.56 1013.80 1013.66 1013.70 1013.84 1014.23 1014.66 1015.21 1015.98 1016.35 1016.73 1017.28 1017.70 1017.32 1017.34 1017.35 1017.46 1017.76 1018.10 1018.23 1018.52 1018.90 1019.36 1019.63 1019.89 1020.28 1020.68 1020.98 1021.31
1018.70 1018.72 1019.64 1020.00 1020.19 1019.68 1019.23 1017.06 1016.11 1015.81 1015.36 1015.08 1014.92 1014.92 1014.81 1014.68 1014.23 1013.79 1013.23 1013.04 1012.95 1012.77 1012.72 1012.62 1012.72 1013.10 1013.54 1014.26 1014.98 1015.30 1015.04 1015.28 1015.40 1016.22 1016.49 1016.41 1016.78 1016.81 1017.08 1017.38 1017.70 1017.89 1018.16 1018.67 1019.01 1019.37 1019.57 1020.14 1020.47
1017.59 1018.26 1019.31 1019.90 1020.13 1020.22 1019.36 1019.00 1015.50 1015.48 1015.05 1014.88 1014.62 1014.53 1014.23 1013.91 1013.60 1013.16 1012.70 1012.36 1011.85 1011.82 1011.72 1011.54 1011.74 1012.27 1012.68 1013.18 1013.48 1014.09 1014.47 1014.16 1013.78 1014.68 1015.32 1015.59 1015.64 1015.93 1016.23 1016.42 1016.84 1017.38 1017.63 1017.59 1017.96 1018.46 1018.88 1019.05 1019.43
1017.68 1018.47 1019.33 1019.94 1020.39 1020.42 1017.84 1019.40 1014.74 1014.88 1014.55 1014.14 1013.96 1013.91 1013.80 1013.36 1012.77 1012.45 1012.34 1012.11 1011.79 1011.23 1011.13 1011.06 1011.04 1011.12 1011.57 1012.18 1012.47 1012.69 1013.09 1013.35 1013.54 1013.64 1013.88 1014.19 1014.73 1015.08 1015.28 1015.36 1015.62 1015.94 1016.45 1016.83 1016.87 1017.37 1017.79 1017.98 1018.30
1017.79 1018.39 1019.75 1020.47 1020.14 1018.56 1018.59 1018.97 1014.59 1013.62 1013.54 1013.44 1013.52 1013.29 1012.87 1012.64 1012.59 1012.50 1012.24 1011.73 1011.38 1011.12 1010.81 1010.65 1010.58 1010.62 1010.61 1010.90 1011.42 1011.76 1011.75 1012.01 1012.18 1012.55 1012.82 1013.44 1013.46 1013.66 1013.47 1013.92 1014.52 1014.97 1015.09 1015.45 1015.85 1016.17 1016.60 1016.88 1017.24
1016.79 1017.62 1018.10 1019.18 1019.74 1019.11 1018.81 1017.18 1013.86 1013.29 1012.91 1012.63 1012.52 1012.17 1012.50 1012.54 1012.19 1011.94 1011.79 1011.37 1011.17 1010.84 1010.69 1010.56 1010.44 1010.50 1010.61 1010.78 1010.66 1010.86 1011.08 1011.24 1011.15 1011.12 1011.45 1011.48 1012.13 1012.44 1012.23 1012.67 1013.01 1013.38 1013.68 1014.35 1014.84 1015.04 1015.20 1015.58 1015.96
1016.30 1016.68 1016.88 1018.78 1019.92 1019.62 1018.22 1016.38 1014.39 1013.11 1012.68 1012.53 1012.24 1012.29 1012.02 1012.07 1012.11 1012.16 1011.89 1011.86 1011.47 1011.30 1011.18 1010.92 1010.72 1010.44 1010.28 1010.24 1010.28 1010.32 1010.53 1010.57 1010.30 1010.28 1010.35 1010.46 1010.63 1011.04 1011.21 1011.50 1011.99 1012.33 1012.71 1013.06 1013.42 1013.73 1013.92 1014.25 1014.75
1014.34 1015.66 1017.19 1018.09 1019.08 1019.17 1017.85 1016.46 1014.48 1013.27 1012.87 1012.55 1012.39 1012.45 1012.44 1012.40 1012.45 1012.22 1012.02 1012.04 1011.90 1011.75 1011.51 1011.11 1010.95 1010.84 1010.57 1010.32 1009.96 1009.72 1009.50 1009.48 1009.49 1009.52 1009.33 1009.43 1009.60 1009.95 1010.14 1010.45 1010.95 1011.26 1011.63 1012.08 1012.33 1012.69 1012.96 1013.14 1013.28
1014.27 1014.86 1015.67 1016.53 1017.72 1017.68 1017.33 1015.15 1013.48 1012.91 1012.76 1013.11 1012.96 1012.95 1012.99 1012.85 1013.04 1012.97 1013.08 1013.03 1012.89 1012.18 1011.67 1011.37 1010.93 1010.69 1010.50 1010.41 1010.14 1009.72 1009.14 1008.73 1008.59 1008.31 1008.11 1008.37 1008.73 1009.00 1009.11 1009.40 1009.94 1010.33 1010.59 1010.88 1011.17 1011.42 1011.79 1012.01 1012.39
1012.56 1012.91 1014.15 1015.21 1016.37 1016.46 1016.08 1013.95 1012.49 1012.32 1012.59 1013.05 1013.18 1013.33 1013.51 1013.57 1013.60 1013.46 1013.49 1013.42 1013.28 1013.05 1012.57 1012.22 1011.70 1011.22 1010.64 1010.42 1010.18 1009.67 1009.20 1008.68 1008.27 1007.90 1007.54 1007.57 1007.62 1007.95 1008.00 1008.26 1008.78 1009.16 1009.53 1009.83 1010.01 1010.28 1010.46 1010.84 1010.92
Wind_Speed
14 13 1 5 6 6 1 1 1 3 2 1 2 8 7 3 1 3 1 9 10 7 6 7 11 13 15 14 13 12 12 12 13 12 11 16 17 15 14 17 13 16 15 15 16 15 15 14 14
11 6 5 3 7 4 4 2 5 1 4 7 8 4 5 2 1 6 5 9 11 8 6 6 11 13 14 14 12 11 12 9 11 10 10 13 14 14 14 15 13 14 15 15 14 14 13 13 12
11 1 4 5 4 4 4 3 5 3 1 2 4 5 3 4 2 9 7 11 12 8 6 7 10 13 14 14 13 11 10 10 10 9 11 11 13 14 14 13 13 13 13 14 13 12 11 12 11
6 6 5 5 1 1 6 6 5 4 1 3 4 6 2 3 8 6 11 11 12 9 9 10 10 12 13 13 13 12 10 10 8 7 8 13 12 15 13 12 13 12 12 12 12 10 10 10 10
5 3 4 2 3 0 1 5 7 5 2 2 4 4 2 4 1 13 12 9 11 8 8 10 12 11 12 12 12 11 11 9 9 6 9 14 14 16 13 12 11 12 11 11 10 9 8 7 8
5 3 4 1 4 1 3 5 6 4 3 2 6 5 3 2 7 7 10 9 9 9 8 8 12 12 10 12 11 11 11 9 8 4 4 13 12 15 13 12 11 10 10 10 9 8 7 6 6
4 3 3 1 3 2 2 0 6 7 5 3 9 5 1 2 5 6 8 9 8 8 7 7 5 10 11 9 9 9 11 10 8 5 3 7 10 10 14 12 10 10 9 9 8 7 6 4 4
5 4 3 1 2 2 4 5 1 3 3 1 5 6 5 7 8 5 6 7 8 7 8 6 8 5 7 8 10 9 9 10 10 8 6 6 8 8 8 10 11 9 9 9 8 6 5 3 1
3 4 2 3 4 4 3 3 4 3 3 3 4 4 4 11 7 6 5 3 5 6 8 7 6 8 5 7 7 9 9 9 9 7 7 6 4 5 6 6 9 8 8 8 7 6 5 2 1
4 4 8 4 1 4 5 1 5 2 1 2 3 4 4 10 5 7 8 8 6 7 6 8 8 6 9 7 7 5 4 4 5 5 6 4 4 4 4 5 7 7 7 6 6 6 4 2 1
4 5 4 2 2 4 5 4 5 1 1 3 6 6 5 4 7 7 7 7 11 8 7 9 10 9 9 7 6 4 3 3 3 6 5 4 3 3 3 2 2 3 5 2 3 3 2 3 3
2 6 3 4 1 3 4 3 5 1 2 5 6 12 9 9 11 10 8 7 6 7 8 10 10 11 11 6 7 7 5 4 4 4 6 4 3 4 4 3 4 4 3 4 3 2 3 5 5
4 3 5 6 8 2 3 6 5 6 8 3 4 10 12 11 13 8 8 7 7 8 8 8 10 11 11 9 8 8 7 6 6 6 6 5 4 5 4 4 4 4 3 4 4 4 4 5 5
3 3 5 5 8 4 3 6 3 4 4 6 7 9 9 12 16 8 8 13 11 9 10 7 9 9 10 9 9 8 9 9 7 6 7 8 6 6 5 5 5 4 4 4 4 4 4 5 4
5 4 5 4 3 4 4 5 9 9 6 8 8 8 9 13 8 15 17 15 15 14 11 11 9 8 9 10 8 7 7 8 8 8 9 9 8 8 7 5 5 6 5 6 4 4 3 3 4
4 4 2 4 7 5 5 14 6 10 6 10 10 8 8 10 14 16 13 14 13 12 15 13 12 11 11 9 7 7 7 6 7 7 8 11 10 10 7 6 6 6 4 4 4 4 4 4 4
2 3 7 7 7 3 8 4 5 9 9 9 9 9 8 8 8 12 13 14 14 15 14 16 16 16 13 9 7 7 7 6 6 6 7 9 10 10 8 7 6 6 5 5 4 4 4 4 4
8 7 6 7 5 8 12 18 14 11 8 12 11 10 8 8 11 8 11 14 13 13 13 13 13 16 15 10 6 4 4 5 5 8 8 9 9 11 9 6 7 6 5 5 4 5 4 4 4
10 5 10 4 6 2 8 15 13 16 13 15 12 9 9 9 9 7 8 12 11 9 11 15 15 17 11 10 9 8 10 7 6 8 10 10 10 11 11 8 7 7 8 9 8 5 6 5 3
7 14 9 4 4 7 9 17 13 9 15 10 12 9 9 6 8 9 8 8 11 16 17 15 17 16 14 11 11 10 8 8 8 6 7 11 13 12 12 11 10 10 8 7 9 8 4 4 5
18 18 8 4 2 4 2 17 10 6 6 6 5 7 6 9 10 11 11 10 11 14 16 17 18 18 17 17 8 4 3 3 4 8 10 12 14 13 13 14 12 11 10 10 10 10 11 8 4
20 15 7 7 5 8 6 13 6 4 9 7 7 7 9 9 9 12 14 12 9 13 15 18 17 18 17 16 12 15 15 14 14 11 10 11 14 14 14 15 14 13 10 12 10 9 9 8 8
11 10 14 7 6 2 10 3 5 4 8 8 8 9 10 10 11 15 13 14 13 12 14 16 17 17 17 17 18 14 15 13 11 10 12 14 13 15 15 15 14 13 10 12 12 10 12 9 9
6 6 4 4 6 12 19 6 17 12 9 8 7 9 9 12 13 13 9 9 9 9 11 13 16 18 19 18 21 20 20 17 12 13 12 11 10 10 15 16 15 14 13 13 12 13 14 13 11
8 7 1 7 10 17 10 8 25 4 9 12 12 12 12 11 8 8 9 9 9 9 9 10 13 17 18 19 19 21 21 20 19 16 12 12 11 11 16 17 16 14 15 15 13 13 15 13 13
19 18 7 10 7 6 5 12 15 7 13 15 14 16 7 9 8 9 9 7 8 7 6 7 8 11 12 15 18 18 20 14 14 16 13 13 13 13 14 14 17 18 17 16 15 12 12 14 13
9 15 11 6 2 4 5 8 8 9 10 7 9 6 8 5 4 1 1 5 4 6 6 6 6 7 8 11 13 15 16 18 16 17 16 13 14 12 14 14 16 18 17 18 17 13 15 14 13
13 10 7 8 7 6 4 5 7 2 2 6 3 7 5 3 2 4 7 9 8 5 5 6 5 6 7 7 9 13 15 17 18 16 17 17 15 15 14 14 16 17 17 18 16 14 14 14 13
9 8 5 4 6 6 4 8 9 12 8 7 5 4 4 5 6 8 8 8 9 10 10 8 6 6 6 6 8 11 15 16 16 17 17 16 14 14 14 14 15 16 17 17 16 17 15 16 15
18 21 17 8 6 3 3 8 3 7 10 7 6 4 4 6 7 7 7 7 8 9 11 10 10 9 8 5 6 8 11 14 15 16 16 15 16 15 17 16 16 15 16 16 17 17 15 16 17
Wind_Direction
323 317 26 38 54 62 1 46 143 126 51 30 40 104 121 72 63 185 166 134 134 130 139 136 135 124 120 116 111 113 114 117 120 116 116 110 108 106 104 99 96 96 103 99 99 99 101 97 85
317 329 36 76 83 70 298 289 109 158 176 130 89 94 53 99 127 114 102 152 133 132 132 135 139 131 129 122 121 115 116 116 122 117 111 110 112 111 111 105 105 106 105 103 105 105 106 99 83
315 21 66 82 100 155 176 208 163 164 124 105 100 63 126 158 120 162 150 146 134 128 125 136 138 138 134 129 124 124 121 125 129 123 121 116 117 114 114 112 109 110 111 110 108 108 109 98 80
349 1 25 75 81 326 163 183 185 131 54 80 112 74 38 281 158 159 146 146 131 135 134 142 144 144 137 135 134 133 133 132 139 141 135 116 132 120 117 115 114 115 114 113 112 111 105 92 79
25 46 35 28 330 286 216 184 167 143 186 134 135 180 114 329 260 130 139 139 130 136 140 146 148 148 145 143 140 137 137 143 142 156 141 121 129 122 120 120 119 117 119 120 120 114 103 91 76
13 77 37 79 337 269 279 200 143 128 181 179 73 105 203 295 134 150 142 136 140 144 143 149 151 148 150 149 147 146 140 133 142 133 93 132 128 128 123 125 127 127 127 127 124 119 111 90 73
96 67 228 223 284 281 274 219 150 166 160 229 144 116 275 256 206 152 145 138 139 144 145 140 157 156 154 152 150 147 140 133 132 142 102 136 117 125 129 132 133 138 137 135 132 132 121 102 62
104 91 304 300 275 337 309 0 60 130 194 137 129 172 211 214 187 142 129 142 141 151 151 162 150 167 157 158 152 154 154 149 151 141 118 85 98 108 112 135 142 149 149 146 147 146 144 135 87
85 73 252 266 23 306 336 11 351 324 97 61 19 136 249 154 149 126 116 129 146 162 163 159 173 157 164 156 165 163 161 160 155 153 147 133 133 127 129 145 140 153 156 161 161 167 162 165 307
103 132 213 180 104 327 331 51 322 82 27 32 29 3 86 136 164 162 166 173 178 182 181 174 164 180 163 170 154 155 153 164 163 166 170 166 169 163 160 167 156 160 168 172 176 182 185 174 287
198 190 224 190 68 1 333 338 321 47 287 210 215 180 167 159 172 183 195 189 183 188 184 185 178 172 178 173 167 162 165 172 179 174 181 181 165 175 168 169 169 179 184 188 185 202 196 211 228
220 228 219 288 111 22 294 271 329 239 227 298 252 171 166 177 193 194 205 200 197 196 194 191 188 183 182 172 177 170 177 182 183 198 186 173 178 187 182 186 194 200 199 205 203 216 220 228 239
220 271 278 263 276 222 271 270 244 254 278 288 97 163 188 190 200 206 201 206 201 219 208 199 191 190 185 172 176 171 181 193 198 190 195 187 181 185 182 196 198 206 202 211 212 217 227 238 238
186 229 276 296 285 300 251 267 211 230 238 293 163 203 207 202 205 197 208 213 209 209 223 198 209 202 187 183 178 183 184 189 192 201 198 193 187 188 195 194 205 213 199 208 213 210 215 229 236
244 287 301 240 250 261 355 285 231 258 271 271 252 231 216 221 202 212 213 216 207 207 207 214 197 210 206 199 188 186 198 192 196 200 203 191 192 194 194 196 205 214 206 207 213 230 222 236 242
176 120 199 241 200 237 122 259 269 271 248 261 262 277 247 226 218 225 222 217 212 206 202 204 205 202 210 210 202 197 195 199 207 199 199 201 198 195 197 199 208 208 200 195 195 200 215 227 230
339 158 192 264 204 182 184 268 254 238 229 245 261 266 262 262 232 233 220 219 210 209 206 204 201 202 201 206 206 206 199 199 202 204 203 198 200 201 202 208 212 195 197 200 195 208 192 209 237
191 196 221 188 228 202 238 252 261 270 255 244 241 244 261 267 264 241 226 221 218 208 207 210 204 206 201 197 203 202 198 202 196 208 207 200 204 203 202 203 203 197 197 208 195 204 207 207 220
187 201 209 210 233 202 237 259 250 256 248 249 249 252 249 254 263 266 240 219 209 208 199 202 202 210 193 196 197 212 218 215 215 212 211 201 206 206 207 213 205 201 208 210 202 189 204 228 205
201 212 215 258 210 168 265 265 254 239 255 231 237 238 249 269 277 280 255 226 209 207 206 204 209 201 206 207 206 203 206 225 223 218 213 208 210 208 205 207 212 210 213 206 202 195 194 214 179
219 218 184 174 198 250 325 283 261 236 241 258 222 222 228 231 254 266 264 242 213 218 211 207 207 204 202 210 200 172 147 182 214 219 215 216 211 210 211 211 211 212 210 216 211 202 203 222 202
217 214 161 186 156 240 152 266 240 200 246 242 239 241 245 252 254 256 261 264 229 220 219 215 212 206 205 199 196 204 208 207 221 230 229 219 218 216 213 217 215 215 208 218 213 205 205 207 216
223 168 192 174 193 94 242 270 271 184 251 253 265 256 249 253 253 258 249 245 250 232 217 211 211 206 205 200 203 207 219 226 218 210 219 218 215 217 216 215 218 221 218 217 209 204 210 206 218
137 83 131 142 183 235 237 176 267 236 247 248 229 238 242 249 256 258 275 267 256 242 224 217 211 206 201 201 206 206 214 221 219 217 214 216 216 213 221 219 216 215 217 219 212 211 213 214 216
171 139 197 213 215 237 151 175 244 242 245 251 267 250 242 244 274 288 276 281 271 265 243 229 217 216 209 206 208 213 215 216 219 219 215 217 211 210 218 212 213 218 218 218 214 210 217 214 217
196 201 189 196 201 233 157 223 238 234 245 250 240 258 264 257 248 257 260 265 283 281 291 236 225 229 225 221 218 216 221 223 223 222 219 215 219 226 226 213 215 217 215 216 217 218 216 216 219
195 207 200 97 101 80 210 279 292 250 268 299 261 247 254 207 193 192 50 270 338 9 346 324 290 257 238 226 228 226 226 228 227 227 226 226 223 227 222 214 212 215 217 216 214 218 220 215 218
179 155 176 205 190 227 241 264 234 283 245 344 125 171 203 99 115 20 21 358 347 353 338 346 330 282 272 258 242 239 231 228 232 233 231 229 228 222 221 215 214 214 216 217 214 221 224 217 220
169 202 196 167 171 186 193 247 204 230 213 162 148 136 36 40 16 8 356 346 339 336 339 329 339 327 300 278 272 261 252 242 237 234 234 231 229 224 223 219 218 218 217 215 217 221 222 219 225
196 209 198 200 222 213 130 254 224 211 138 144 131 94 21 37 26 22 15 0 354 343 336 327 324 329 319 299 280 277 275 261 252 246 241 232 230 224 223 216 219 221 221 217 217 219 217 221 223